Datetime-UTC, Datetime-J2000, North, East, Up
2022/07/15 00:00:00, 711115200.00, 0.000000, 0.000000, 0.000000
2022/07/15 00:10:00, 711115800.00, -0.004200, 0.007200, -0.027900
2022/07/15 00:20:00, 711116400.00, -0.006600, 0.013500, -0.041700
2022/07/15 00:25:00, 711116700.00, -0.006100, 0.019300, -0.034700
2022/07/15 00:30:00, 711117000.00, -0.007800, 0.013000, -0.038300
2022/07/15 00:35:00, 711117300.00, -0.009800, 0.007100, -0.043400
2022/07/15 00:40:00, 711117600.00, -0.009300, 0.015600, -0.031100
2022/07/15 00:45:00, 711117900.00, -0.003600, 0.010300, -0.033400
2022/07/15 00:50:00, 711118200.00, 0.009400, 0.013100, -0.056700
2022/07/15 00:55:00, 711118500.00, -0.002000, 0.011000, -0.052700
2022/07/15 01:00:00, 711118800.00, 0.000800, 0.009100, -0.040600
2022/07/15 01:05:00, 711119100.00, 0.001700, 0.011000, -0.047900
2022/07/15 01:10:00, 711119400.00, -0.005400, 0.008800, -0.040500
2022/07/15 01:15:00, 711119700.00, 0.005400, 0.010200, -0.040700
2022/07/15 01:20:00, 711120000.00, 0.004900, 0.006000, -0.053600
2022/07/15 01:25:00, 711120300.00, 0.007900, 0.005300, -0.038500
2022/07/15 01:30:00, 711120600.00, -0.000700, 0.008100, -0.036600
2022/07/15 01:35:00, 711120900.00, 0.005900, 0.010100, -0.024400
2022/07/15 01:40:00, 711121200.00, -0.003400, 0.010100, -0.030100
2022/07/15 01:45:00, 711121500.00, -0.000200, 0.006300, -0.046400
2022/07/15 01:55:00, 711122100.00, -0.004400, 0.012500, -0.047300
2022/07/15 02:00:00, 711122400.00, -0.004600, 0.007700, -0.052900
2022/07/15 02:10:00, 711123000.00, 0.003000, 0.007400, -0.030600
2022/07/15 02:15:00, 711123300.00, 0.002700, 0.007900, -0.024600
2022/07/15 02:20:00, 711123600.00, 0.010600, 0.017800, -0.008100
2022/07/15 02:30:00, 711124200.00, 0.026900, 0.000000, -0.005500
2022/07/15 02:35:00, 711124500.00, 0.031400, -0.003300, 0.012800
2022/07/15 02:40:00, 711124800.00, 0.019800, -0.000700, 0.016300
2022/07/15 02:45:00, 711125100.00, 0.020200, -0.001800, -0.019200
2022/07/15 02:50:00, 711125400.00, 0.027200, -0.004600, -0.000400
2022/07/15 02:55:00, 711125700.00, 0.019000, -0.006000, -0.013800
2022/07/15 03:00:00, 711126000.00, 0.004600, -0.001600, -0.012600
2022/07/15 03:15:00, 711126900.00, 0.002300, -0.000200, -0.029000
2022/07/15 03:35:00, 711128100.00, 0.001000, 0.003200, -0.008300
2022/07/15 03:40:00, 711128400.00, -0.003900, 0.008800, -0.014600
2022/07/15 03:45:00, 711128700.00, 0.002600, 0.004600, -0.029100
2022/07/15 03:50:00, 711129000.00, -0.009000, 0.003300, -0.016100
2022/07/15 03:55:00, 711129300.00, -0.004100, 0.001900, -0.031900
2022/07/15 04:00:00, 711129600.00, 0.000700, 0.003800, -0.066900
2022/07/15 04:05:00, 711129900.00, -0.005100, 0.003000, -0.041600
2022/07/15 04:10:00, 711130200.00, 0.003800, -0.000200, -0.051000
2022/07/15 04:25:00, 711131100.00, -0.000200, 0.010000, -0.037400
2022/07/15 04:35:00, 711131700.00, -0.000100, 0.009100, -0.034600
2022/07/15 04:40:00, 711132000.00, 0.008200, 0.012600, -0.032400
2022/07/15 04:45:00, 711132300.00, 0.005900, 0.012800, -0.028400
2022/07/15 05:00:00, 711133200.00, 0.013200, 0.020000, 0.002300
2022/07/15 05:05:00, 711133500.00, 0.011900, 0.014900, -0.012500
2022/07/15 05:15:00, 711134100.00, 0.015700, 0.017400, -0.011000
2022/07/15 05:20:00, 711134400.00, 0.020300, 0.022600, 0.002400
2022/07/15 05:30:00, 711135000.00, 0.017300, 0.018700, -0.024100
2022/07/15 05:35:00, 711135300.00, 0.019800, 0.011800, -0.008100
2022/07/15 05:40:00, 711135600.00, 0.015700, 0.015000, -0.009600
2022/07/15 05:45:00, 711135900.00, 0.019700, 0.012200, -0.025800
2022/07/15 05:50:00, 711136200.00, 0.012400, 0.014100, -0.035300
2022/07/15 05:55:00, 711136500.00, 0.000800, 0.019000, -0.051400
2022/07/15 06:00:00, 711136800.00, 0.002300, 0.020900, -0.045500
2022/07/15 06:05:00, 711137100.00, -0.001700, 0.017700, -0.034000
2022/07/15 06:10:00, 711137400.00, -0.001800, 0.010800, -0.038400
2022/07/15 06:15:00, 711137700.00, -0.003300, 0.005600, -0.018000
2022/07/15 06:20:00, 711138000.00, -0.002400, 0.002600, -0.002600
2022/07/15 06:25:00, 711138300.00, 0.000400, 0.003300, -0.013800
2022/07/15 06:30:00, 711138600.00, -0.012500, 0.010100, -0.024300
2022/07/15 06:35:00, 711138900.00, -0.015500, 0.000700, -0.031700
2022/07/15 06:40:00, 711139200.00, -0.022100, 0.013300, -0.033500
2022/07/15 06:45:00, 711139500.00, -0.020500, 0.009600, 0.001200
2022/07/15 06:50:00, 711139800.00, -0.020200, 0.008300, -0.014900
2022/07/15 06:55:00, 711140100.00, -0.005700, 0.012200, -0.019800
2022/07/15 07:00:00, 711140400.00, -0.011500, 0.008300, -0.006100
2022/07/15 07:05:00, 711140700.00, -0.005100, 0.013100, -0.029200
2022/07/15 07:10:00, 711141000.00, 0.005500, 0.007800, -0.030600
2022/07/15 07:15:00, 711141300.00, -0.014100, 0.005000, -0.041600
2022/07/15 07:20:00, 711141600.00, -0.005400, 0.007700, -0.044000
2022/07/15 07:25:00, 711141900.00, -0.006900, 0.009000, -0.044700
2022/07/15 07:30:00, 711142200.00, 0.000200, 0.010600, -0.031900
2022/07/15 07:35:00, 711142500.00, -0.005100, 0.008100, -0.043200
2022/07/15 07:40:00, 711142800.00, -0.005400, 0.009900, -0.047200
2022/07/15 07:45:00, 711143100.00, -0.005700, 0.012300, -0.043100
2022/07/15 07:50:00, 711143400.00, 0.001300, 0.007000, -0.047500
2022/07/15 07:55:00, 711143700.00, 0.000400, 0.008100, -0.043300
2022/07/15 08:00:00, 711144000.00, 0.003400, 0.009300, -0.038500
2022/07/15 08:05:00, 711144300.00, 0.002200, 0.014500, -0.031200
2022/07/15 08:10:00, 711144600.00, -0.001500, 0.007900, -0.051200
2022/07/15 08:15:00, 711144900.00, -0.005000, 0.007800, -0.050900
2022/07/15 08:20:00, 711145200.00, 0.006300, 0.015300, -0.060200
2022/07/15 08:25:00, 711145500.00, 0.006100, 0.014100, -0.041100
2022/07/15 08:30:00, 711145800.00, 0.000800, 0.008600, -0.034200
2022/07/15 08:35:00, 711146100.00, 0.006700, 0.013400, -0.043300
2022/07/15 08:40:00, 711146400.00, 0.006400, 0.020200, -0.046800
2022/07/15 08:50:00, 711147000.00, 0.002400, 0.020400, -0.037700
2022/07/15 08:55:00, 711147300.00, 0.003700, 0.014400, -0.034100
2022/07/15 09:00:00, 711147600.00, -0.002100, 0.010800, -0.034800
2022/07/15 09:05:00, 711147900.00, 0.001200, 0.010100, -0.040000
2022/07/15 09:10:00, 711148200.00, 0.003300, 0.009800, -0.031700
2022/07/15 09:15:00, 711148500.00, 0.000300, 0.019200, -0.026100
2022/07/15 09:20:00, 711148800.00, 0.000800, 0.007000, -0.041100
2022/07/15 09:25:00, 711149100.00, 0.002800, 0.005500, -0.045500
2022/07/15 09:30:00, 711149400.00, 0.001300, 0.006400, -0.032800
2022/07/15 09:40:00, 711150000.00, 0.001100, 0.003300, -0.034400
2022/07/15 09:45:00, 711150300.00, 0.002000, 0.014400, -0.039400
2022/07/15 09:50:00, 711150600.00, 0.002100, 0.014300, -0.015800
2022/07/15 09:55:00, 711150900.00, -0.000500, 0.013500, -0.021000
2022/07/15 10:05:00, 711151500.00, 0.001200, 0.017900, -0.021900
2022/07/15 10:10:00, 711151800.00, 0.002200, 0.016900, -0.021800
2022/07/15 10:15:00, 711152100.00, 0.005200, 0.017300, -0.032700
2022/07/15 10:20:00, 711152400.00, -0.002000, 0.009600, -0.033900
2022/07/15 10:25:00, 711152700.00, 0.004100, 0.001200, -0.035500
2022/07/15 10:30:00, 711153000.00, 0.003100, 0.007700, -0.030100
2022/07/15 10:35:00, 711153300.00, 0.001500, 0.010400, -0.029600
2022/07/15 10:45:00, 711153900.00, 0.001700, 0.000100, -0.050800
2022/07/15 10:55:00, 711154500.00, -0.004600, 0.007400, -0.031900
2022/07/15 11:05:00, 711155100.00, -0.005700, 0.008700, -0.045100
2022/07/15 11:10:00, 711155400.00, -0.002900, 0.004000, -0.043100
2022/07/15 11:15:00, 711155700.00, -0.006000, 0.006700, -0.038300
2022/07/15 11:35:00, 711156900.00, -0.009800, 0.017600, -0.036400
2022/07/15 11:40:00, 711157200.00, -0.014700, 0.011700, -0.031000
2022/07/15 11:45:00, 711157500.00, -0.013900, 0.008900, -0.043000
2022/07/15 11:55:00, 711158100.00, -0.010000, 0.010100, -0.036000
2022/07/15 12:05:00, 711158700.00, -0.015400, 0.007200, -0.036000
2022/07/15 12:10:00, 711159000.00, -0.009100, 0.013000, -0.068500
2022/07/15 12:30:00, 711160200.00, 0.002700, 0.013000, -0.047400
2022/07/15 12:35:00, 711160500.00, -0.004300, 0.013500, -0.032500
2022/07/15 12:40:00, 711160800.00, -0.006200, 0.003100, -0.043300
2022/07/15 12:45:00, 711161100.00, 0.001100, 0.008700, -0.043900
2022/07/15 12:50:00, 711161400.00, -0.002400, 0.007800, -0.018000
2022/07/15 12:55:00, 711161700.00, -0.000700, 0.009000, -0.040600
2022/07/15 13:00:00, 711162000.00, -0.002200, 0.009200, -0.023000
2022/07/15 13:10:00, 711162600.00, 0.004700, 0.018400, -0.045600
2022/07/15 13:15:00, 711162900.00, 0.003500, 0.013600, -0.034600
2022/07/15 13:35:00, 711164100.00, -0.006900, 0.023000, -0.069200
2022/07/15 13:50:00, 711165000.00, -0.012200, 0.018600, -0.065600
2022/07/15 13:55:00, 711165300.00, -0.011000, 0.010400, -0.053500
2022/07/15 14:00:00, 711165600.00, -0.009000, 0.013000, -0.066000
2022/07/15 14:05:00, 711165900.00, -0.009900, 0.009800, -0.056100
2022/07/15 14:10:00, 711166200.00, -0.009700, 0.015600, -0.044900
2022/07/15 14:25:00, 711167100.00, -0.010900, 0.012900, -0.031000
2022/07/15 14:30:00, 711167400.00, -0.005700, 0.011700, -0.024000
2022/07/15 14:40:00, 711168000.00, -0.009400, 0.002900, -0.020300
2022/07/15 14:50:00, 711168600.00, -0.005100, 0.007800, -0.012600
2022/07/15 14:55:00, 711168900.00, -0.002200, 0.009700, -0.014300
2022/07/15 15:00:00, 711169200.00, 0.006500, 0.013600, 0.009700
2022/07/15 15:05:00, 711169500.00, 0.004100, 0.003700, -0.030200
2022/07/15 15:10:00, 711169800.00, 0.003900, 0.002400, -0.022300
2022/07/15 15:15:00, 711170100.00, 0.003600, 0.004800, -0.027600
2022/07/15 15:25:00, 711170700.00, 0.002500, 0.007700, -0.018400
2022/07/15 15:30:00, 711171000.00, 0.003100, 0.006000, -0.026000
2022/07/15 15:35:00, 711171300.00, 0.004900, 0.003500, -0.021100
2022/07/15 15:40:00, 711171600.00, 0.004600, 0.013100, -0.040300
2022/07/15 15:45:00, 711171900.00, 0.001000, 0.007400, -0.034300
2022/07/15 15:50:00, 711172200.00, 0.001700, 0.009000, -0.040400
2022/07/15 15:55:00, 711172500.00, 0.001400, 0.004000, -0.041800
2022/07/15 16:00:00, 711172800.00, -0.005300, 0.006400, -0.036300
2022/07/15 16:05:00, 711173100.00, -0.001200, 0.011100, -0.052400
2022/07/15 16:10:00, 711173400.00, -0.004800, 0.010200, -0.039700
2022/07/15 16:15:00, 711173700.00, 0.003000, 0.007500, -0.039800
2022/07/15 16:20:00, 711174000.00, 0.009700, 0.010900, -0.043700
2022/07/15 16:25:00, 711174300.00, 0.000700, 0.005000, -0.038000
2022/07/15 16:30:00, 711174600.00, -0.000300, 0.018400, -0.053900
2022/07/15 16:35:00, 711174900.00, -0.003700, 0.008300, -0.049900
2022/07/15 16:40:00, 711175200.00, -0.003000, 0.016000, -0.039700
2022/07/15 16:45:00, 711175500.00, 0.003500, 0.009400, -0.032400
2022/07/15 16:50:00, 711175800.00, 0.000200, 0.015900, -0.058300
2022/07/15 17:30:00, 711178200.00, 0.000800, 0.011300, -0.056800
2022/07/15 17:35:00, 711178500.00, 0.003100, 0.002000, -0.057300
2022/07/15 17:50:00, 711179400.00, -0.003800, 0.004300, -0.030800
2022/07/15 17:55:00, 711179700.00, -0.008600, 0.004200, -0.036900
2022/07/15 18:30:00, 711181800.00, -0.000800, 0.003300, -0.043300
2022/07/15 18:35:00, 711182100.00, -0.000500, 0.012900, -0.036600
2022/07/15 18:40:00, 711182400.00, -0.003900, 0.007900, -0.057900
2022/07/15 19:10:00, 711184200.00, 0.002000, 0.017700, -0.039300
2022/07/15 19:15:00, 711184500.00, 0.010600, 0.015500, -0.045500
2022/07/15 19:20:00, 711184800.00, 0.010200, 0.007300, -0.046000
2022/07/15 19:25:00, 711185100.00, 0.002700, 0.015200, -0.016300
2022/07/15 19:30:00, 711185400.00, 0.008700, 0.008900, -0.028600
2022/07/15 19:35:00, 711185700.00, 0.004100, 0.006500, -0.035800
2022/07/15 19:40:00, 711186000.00, 0.004200, 0.011700, -0.020500
2022/07/15 19:45:00, 711186300.00, 0.007100, 0.004000, -0.041000
2022/07/15 19:50:00, 711186600.00, -0.008300, 0.004300, -0.026500
2022/07/15 19:55:00, 711186900.00, 0.001000, 0.008600, -0.040500
2022/07/15 20:00:00, 711187200.00, -0.008700, 0.005000, -0.032200
2022/07/15 20:05:00, 711187500.00, 0.004300, 0.003700, -0.023200
2022/07/15 20:10:00, 711187800.00, -0.003000, 0.012500, -0.036400
2022/07/15 20:15:00, 711188100.00, 0.003300, 0.007700, -0.045900
2022/07/15 20:20:00, 711188400.00, -0.005800, 0.013300, -0.040800
2022/07/15 20:25:00, 711188700.00, -0.010600, 0.009400, -0.039100
2022/07/15 20:30:00, 711189000.00, 0.000800, 0.010500, -0.040800
2022/07/15 20:35:00, 711189300.00, -0.000600, 0.011800, -0.041400
2022/07/15 20:45:00, 711189900.00, 0.004200, 0.007700, -0.041800
2022/07/15 20:50:00, 711190200.00, 0.006400, 0.007200, -0.030700
2022/07/15 20:55:00, 711190500.00, 0.014200, -0.003700, 0.006900
